Location: Cazarilh
(42.9578°N, 0.5819°E)
Time: 14:41:42
(UTC+00:00)

PAYLOAD B - Pass Details

Date: 11 December 2019
Orbit: 850 x 871 km, 99.1° (Epoch: 24 January)

Event Time Altitude Azimuth Distance (km) Brightness Sun altitude
Rises 05:34:37 0° 13° (NNE) 3,430 7.4 -18.2°
Reaches altitude 10° 05:36:59 10° 12° (NNE) 2,492 6.6 -17.8°
Maximum altitude 05:42:31 80° 287° (WNW) 875 4.1 -16.9°
Drops below altitude 10° 05:48:02 10° 201° (SSW) 2,488 6.6 -15.9°
Sets 05:50:24 0° 200° (SSW) 3,423 7.3 -15.5°
